| time (UTC) | temp C | wind direction | speed KPH | gust KPH | rain 1hr cm | rain 24hr cm | rain mn cm | humidity % | barometer mb |
| 20260503000702 | 9 | 186 | 1.6 | 1.6 | 0.00 | 0.20 | 0.20 | 90 | 1012.9 |
| 20260503000203 | 9 | 76 | 1.6 | 1.6 | 0.00 | 0.20 | 0.20 | 90 | 1012.8 |
| 20260502235702 | 9 | 83 | 1.6 | 1.6 | 0.00 | 0.20 | 0.20 | 90 | 1012.9 |
| 20260502235201 | 9 | 76 | 1.6 | 1.6 | 0.00 | 0.20 | 0.20 | 90 | 1012.8 |
| 20260502234703 | 9 | 211 | 1.6 | 1.6 | 0.00 | 0.20 | 0.20 | 90 | 1012.9 |
| 20260502234200 | 9 | 75 | 1.6 | 1.6 | 0.00 | 0.20 | 0.20 | 90 | 1012.9 |
| 20260502233923 | 9 | 104 | 1.6 | 1.6 | 0.00 | 0.20 | 0.20 | 90 | 1012.9 |
| 20260502233201 | 9 | 221 | 1.6 | 1.6 | 0.00 | 0.20 | 0.20 | 90 | 1012.9 |
| 20260502232703 | 9 | 210 | 1.6 | 1.6 | 0.00 | 0.20 | 0.20 | 90 | 1012.9 |
| 20260502232428 | 9 | 203 | 1.6 | 1.6 | 0.00 | 0.20 | 0.20 | 90 | 1012.9 |
| 20260502231647 | 9 | 183 | 1.6 | 1.6 | 0.00 | 0.20 | 0.20 | 90 | 1012.8 |
| 20260502231147 | 9 | 199 | 1.6 | 1.6 | 0.00 | 0.20 | 0.20 | 90 | 1012.8 |
| 20260502231132 | 9 | 203 | 1.6 | 1.6 | 0.00 | 0.20 | 0.20 | 90 | 1012.9 |
| 20260502230146 | 9 | 181 | 1.6 | 3.2 | 0.00 | 0.20 | 0.20 | 90 | 1012.9 |
| 20260502225647 | 9 | 182 | 1.6 | 3.2 | 0.00 | 0.20 | 0.20 | 90 | 1012.9 |
| 20260502225147 | 9 | 161 | 1.6 | 3.2 | 0.00 | 0.20 | 0.20 | 90 | 1012.8 |
| 20260502224647 | 9 | 121 | 1.6 | 3.2 | 0.00 | 0.20 | 0.20 | 89 | 1012.9 |
| 20260502224147 | 9 | 185 | 1.6 | 3.2 | 0.00 | 0.20 | 0.20 | 89 | 1012.9 |
| 20260502223904 | 9 | 164 | 1.6 | 4.8 | 0.00 | 0.20 | 0.20 | 88 | 1012.9 |
| 20260502223147 | 10 | 243 | 3.2 | 6.4 | 0.00 | 0.20 | 0.20 | 88 | 1012.9 |
| 20260502222647 | 10 | 251 | 3.2 | 6.4 | 0.00 | 0.20 | 0.20 | 87 | 1012.7 |
| 20260502222133 | 10 | 65 | 1.6 | 4.8 | 0.00 | 0.20 | 0.20 | 87 | 1012.7 |
| 20260502221633 | 10 | 92 | 3.2 | 6.4 | 0.00 | 0.20 | 0.20 | 86 | 1012.7 |
| 20260502221133 | 10 | 236 | 3.2 | 8.0 | 0.00 | 0.20 | 0.20 | 85 | 1012.9 |
| 20260502220633 | 10 | 244 | 4.8 | 9.7 | 0.00 | 0.20 | 0.20 | 85 | 1012.9 |
| 20260502220350 | 10 | 67 | 4.8 | 9.7 | 0.00 | 0.20 | 0.20 | 85 | 1013.0 |
| 20260502215633 | 10 | 268 | 4.8 | 9.7 | 0.00 | 0.20 | 0.20 | 85 | 1013.0 |
| 20260502215133 | 11 | 284 | 6.4 | 11.3 | 0.00 | 0.20 | 0.20 | 85 | 1012.9 |
| 20260502214632 | 11 | 115 | 6.4 | 11.3 | 0.00 | 0.20 | 0.20 | 84 | 1012.8 |
| 20260502214133 | 11 | 267 | 4.8 | 8.0 | 0.00 | 0.20 | 0.20 | 83 | 1012.8 |
| 20260502213855 | 11 | 170 | 4.8 | 8.0 | 0.00 | 0.20 | 0.20 | 84 | 1012.7 |
| 20260502213401 | 11 | 276 | 4.8 | 8.0 | 0.00 | 0.20 | 0.20 | 84 | 1012.7 |
| 20260502212633 | 11 | 231 | 3.2 | 8.0 | 0.00 | 0.20 | 0.20 | 83 | 1012.7 |
| 20260502212133 | 11 | 240 | 3.2 | 4.8 | 0.00 | 0.20 | 0.20 | 84 | 1012.7 |
| 20260502211618 | 11 | 142 | 3.2 | 4.8 | 0.00 | 0.20 | 0.20 | 82 | 1012.7 |
| 20260502211338 | 11 | 172 | 3.2 | 6.4 | 0.00 | 0.20 | 0.20 | 81 | 1012.7 |
| 20260502210604 | 11 | 190 | 3.2 | 9.7 | 0.00 | 0.20 | 0.20 | 80 | 1012.7 |
| 20260502210105 | 11 | 153 | 3.2 | 9.7 | 0.00 | 0.20 | 0.20 | 81 | 1012.7 |
| 20260502205604 | 11 | 246 | 4.8 | 8.0 | 0.00 | 0.20 | 0.20 | 80 | 1012.7 |
| 20260502205105 | 12 | 204 | 4.8 | 9.7 | 0.00 | 0.20 | 0.20 | 79 | 1012.7 |
| 20260502204604 | 12 | 148 | 3.2 | 9.7 | 0.00 | 0.20 | 0.20 | 78 | 1012.6 |
| 20260502204106 | 12 | 263 | 3.2 | 8.0 | 0.00 | 0.20 | 0.20 | 82 | 1012.6 |
| 20260502203604 | 11 | 277 | 3.2 | 6.4 | 0.00 | 0.20 | 0.20 | 83 | 1012.7 |
| 20260502203053 | 11 | 134 | 3.2 | 6.4 | 0.00 | 0.20 | 0.20 | 83 | 1012.7 |
| 20260502202535 | 11 | 161 | 1.6 | 4.8 | 0.00 | 0.20 | 0.20 | 83 | 1012.7 |
| 20260502202035 | 11 | 174 | 3.2 | 3.2 | 0.00 | 0.20 | 0.20 | 83 | 1012.6 |
| 20260502201533 | 11 | 158 | 3.2 | 3.2 | 0.00 | 0.20 | 0.20 | 83 | 1012.7 |
| 20260502201019 | 11 | 234 | 3.2 | 4.8 | 0.00 | 0.20 | 0.20 | 83 | 1012.8 |
| 20260502200519 | 11 | 155 | 3.2 | 4.8 | 0.00 | 0.20 | 0.20 | 82 | 1012.8 |
| 20260502200005 | 11 | 152 | 3.2 | 8.0 | 0.00 | 0.20 | 0.20 | 82 | 1012.9 |
| 20260502195505 | 11 | 178 | 3.2 | 8.0 | 0.00 | 0.20 | 0.20 | 81 | 1013.0 |
| 20260502195004 | 11 | 149 | 3.2 | 6.4 | 0.00 | 0.20 | 0.20 | 81 | 1013.0 |
| 20260502194505 | 11 | 150 | 3.2 | 6.4 | 0.00 | 0.20 | 0.20 | 82 | 1013.1 |
| 20260502194005 | 11 | 260 | 3.2 | 6.4 | 0.00 | 0.20 | 0.20 | 84 | 1013.0 |
| 20260502193451 | 11 | 206 | 3.2 | 6.4 | 0.00 | 0.20 | 0.20 | 85 | 1013.1 |
| 20260502192950 | 11 | 132 | 3.2 | 6.4 | 0.00 | 0.20 | 0.20 | 85 | 1013.1 |
| 20260502192450 | 11 | 142 | 3.2 | 4.8 | 0.00 | 0.20 | 0.20 | 85 | 1013.2 |
| 20260502191950 | 11 | 145 | 3.2 | 6.4 | 0.00 | 0.20 | 0.20 | 85 | 1013.3 |
| 20260502191451 | 11 | 220 | 3.2 | 6.4 | 0.00 | 0.20 | 0.20 | 85 | 1013.4 |
| 20260502191219 | 11 | 171 | 3.2 | 4.8 | 0.00 | 0.20 | 0.20 | 85 | 1013.4 |
| 20260502190659 | 11 | 139 | 3.2 | 4.8 | 0.03 | 0.20 | 0.20 | 84 | 1013.5 |
| 20260502185935 | 11 | 143 | 3.2 | 6.4 | 0.03 | 0.20 | 0.20 | 86 | 1013.6 |
| 20260502185436 | 10 | 157 | 3.2 | 8.0 | 0.03 | 0.20 | 0.20 | 87 | 1013.6 |
| 20260502184936 | 10 | 151 | 4.8 | 8.0 | 0.03 | 0.20 | 0.20 | 88 | 1013.6 |
| 20260502184435 | 10 | 196 | 4.8 | 8.0 | 0.05 | 0.20 | 0.20 | 90 | 1013.7 |
| 20260502183937 | 10 | 248 | 4.8 | 6.4 | 0.05 | 0.20 | 0.20 | 90 | 1013.7 |
| 20260502183659 | 10 | 167 | 3.2 | 6.4 | 0.08 | 0.20 | 0.20 | 91 | 1013.7 |
| 20260502182937 | 9 | 183 | 3.2 | 4.8 | 0.08 | 0.20 | 0.20 | 92 | 1013.7 |
| 20260502182435 | 9 | 222 | 3.2 | 4.8 | 0.10 | 0.20 | 0.20 | 91 | 1013.7 |
| 20260502181936 | 9 | 176 | 1.6 | 4.8 | 0.10 | 0.20 | 0.20 | 91 | 1013.8 |
| 20260502181434 | 9 | 251 | 1.6 | 3.2 | 0.10 | 0.20 | 0.20 | 91 | 1013.8 |
| 20260502180921 | 9 | 209 | 3.2 | 6.4 | 0.10 | 0.20 | 0.20 | 91 | 1013.8 |
| 20260502180421 | 9 | 201 | 3.2 | 6.4 | 0.10 | 0.18 | 0.18 | 90 | 1014.0 |
| 20260502180143 | 9 | 199 | 3.2 | 6.4 | 0.10 | 0.18 | 0.18 | 90 | 1014.0 |
| 20260502163854 | 11 | 157 | 3.2 | 4.8 | 0.03 | 0.08 | 0.08 | 84 | 1014.0 |
| 20260502163353 | 11 | 154 | 3.2 | 4.8 | 0.03 | 0.08 | 0.08 | 83 | 1014.0 |
| 20260502163103 | 11 | 185 | 3.2 | 4.8 | 0.03 | 0.08 | 0.08 | 83 | 1013.8 |
| 20260502162338 | 11 | 238 | 3.2 | 6.4 | 0.03 | 0.08 | 0.08 | 82 | 1013.9 |
| 20260502161836 | 11 | 214 | 3.2 | 8.0 | 0.03 | 0.08 | 0.08 | 81 | 1013.9 |
| 20260502161326 | 11 | 262 | 4.8 | 8.0 | 0.03 | 0.08 | 0.08 | 81 | 1013.9 |
| 20260502160824 | 11 | 187 | 3.2 | 6.4 | 0.03 | 0.08 | 0.08 | 83 | 1014.1 |
| 20260502160323 | 11 | 92 | 3.2 | 6.4 | 0.03 | 0.08 | 0.08 | 82 | 1014.2 |
| 20260502152309 | 11 | 170 | 3.2 | 8.0 | 0.03 | 0.05 | 0.05 | 83 | 1014.5 |
| 20260502151810 | 11 | 48 | 1.6 | 4.8 | 0.03 | 0.05 | 0.05 | 83 | 1014.5 |
| 20260502151309 | 11 | 127 | 1.6 | 4.8 | 0.03 | 0.05 | 0.05 | 82 | 1014.3 |
| 20260502150811 | 11 | 183 | 3.2 | 4.8 | 0.03 | 0.05 | 0.05 | 82 | 1014.4 |
| 20260502150309 | 11 | 146 | 1.6 | 4.8 | 0.03 | 0.05 | 0.05 | 81 | 1014.4 |
| 20260502130211 | 10 | 211 | 4.8 | 9.7 | 0.00 | 0.00 | 0.00 | 86 | 1015.3 |
| 20260502130152 | 10 | 68 | 6.4 | 9.7 | 0.00 | 0.00 | 0.00 | 86 | 1015.3 |
| 20260502123653 | 10 | 235 | 6.4 | 11.3 | 0.00 | 0.00 | 0.00 | 84 | 1015.3 |
| 20260502123154 | 10 | 238 | 6.4 | 12.9 | 0.00 | 0.00 | 0.00 | 83 | 1015.3 |
| 20260502122654 | 10 | 59 | 6.4 | 12.9 | 0.00 | 0.00 | 0.00 | 83 | 1015.3 |
| 20260502122154 | 10 | 240 | 6.4 | 11.3 | 0.00 | 0.00 | 0.00 | 83 | 1015.3 |
| 20260502121654 | 10 | 224 | 4.8 | 11.3 | 0.00 | 0.00 | 0.00 | 83 | 1015.1 |
| 20260502121154 | 10 | 237 | 6.4 | 11.3 | 0.00 | 0.00 | 0.00 | 83 | 1015.0 |
| 20260502120654 | 10 | 228 | 6.4 | 11.3 | 0.00 | 0.00 | 0.00 | 83 | 1014.9 |
| 20260502120154 | 10 | 263 | 6.4 | 11.3 | 0.00 | 0.00 | 0.00 | 83 | 1014.7 |
| 20260502115648 | 10 | 230 | 6.4 | 11.3 | 0.00 | 0.00 | 0.00 | 83 | 1014.7 |
| 20260502115416 | 10 | 217 | 6.4 | 11.3 | 0.00 | 0.00 | 0.00 | 83 | 1014.7 |
| 20260502114914 | 9 | 238 | 8.0 | 12.9 | 0.00 | 0.00 | 0.00 | 83 | 1014.8 |
| 20260502114414 | 9 | 235 | 8.0 | 12.9 | 0.00 | 0.00 | 0.00 | 83 | 1014.6 |
| 20260502113649 | 9 | 260 | 6.4 | 12.9 | 0.00 | 0.00 | 0.00 | 84 | 1014.5 |
| 20260502113149 | 9 | 247 | 4.8 | 9.7 | 0.00 | 0.00 | 0.00 | 84 | 1014.4 |
| 20260502112643 | 9 | 196 | 3.2 | 6.4 | 0.00 | 0.00 | 0.00 | 85 | 1014.4 |
| 20260502112143 | 8 | 182 | 3.2 | 6.4 | 0.00 | 0.00 | 0.00 | 85 | 1014.5 |
| 20260502111643 | 8 | 192 | 3.2 | 4.8 | 0.00 | 0.00 | 0.00 | 85 | 1014.3 |
| 20260502111629 | 8 | 183 | 3.2 | 4.8 | 0.00 | 0.00 | 0.00 | 85 | 1014.5 |
| 20260502110642 | 8 | 233 | 3.2 | 6.4 | 0.00 | 0.00 | 0.00 | 84 | 1014.6 |
| 20260502110142 | 8 | 195 | 1.6 | 6.4 | 0.00 | 0.00 | 0.00 | 84 | 1014.5 |
| 20260502105628 | 8 | 192 | 1.6 | 4.8 | 0.00 | 0.00 | 0.00 | 84 | 1014.4 |
| 20260502105129 | 8 | 0 | 3.2 | 6.4 | 0.00 | 0.00 | 0.00 | 84 | 1014.4 |
| 20260502104614 | 8 | 29 | 3.2 | 6.4 | 0.00 | 0.00 | 0.00 | 84 | 1014.4 |
| 20260502104114 | 8 | 247 | 3.2 | 4.8 | 0.00 | 0.00 | 0.00 | 84 | 1014.4 |
| 20260502103614 | 8 | 237 | 1.6 | 4.8 | 0.00 | 0.00 | 0.00 | 83 | 1014.2 |
| 20260502103600 | 8 | 142 | 1.6 | 3.2 | 0.00 | 0.00 | 0.00 | 83 | 1014.2 |
| 20260502102613 | 8 | 0 | 1.6 | 4.8 | 0.00 | 0.00 | 0.00 | 83 | 1014.2 |
| 20260502102114 | 8 | 218 | 3.2 | 4.8 | 0.00 | 0.00 | 0.00 | 83 | 1014.3 |
| 20260502101836 | 8 | 207 | 3.2 | 4.8 | 0.00 | 0.00 | 0.00 | 83 | 1014.4 |
| 20260502101601 | 8 | 195 | 1.6 | 4.8 | 0.00 | 0.00 | 0.00 | 83 | 1014.3 |
| 20260502100614 | 8 | 259 | 1.6 | 4.8 | 0.00 | 0.00 | 0.00 | 82 | 1014.1 |
| 20260502100114 | 8 | 184 | 1.6 | 3.2 | 0.00 | 0.00 | 0.00 | 82 | 1014.1 |
| 20260502091043 | 8 | 207 | 3.2 | 4.8 | 0.00 | 0.00 | 0.00 | 80 | 1014.0 |
| 20260502090543 | 8 | 244 | 3.2 | 3.2 | 0.00 | 0.00 | 0.00 | 80 | 1014.0 |
| 20260502090251 | 8 | 229 | 3.2 | 3.2 | 0.00 | 0.00 | 0.00 | 79 | 1013.9 |
| 20260502071517 | 9 | 66 | 0.0 | 3.2 | 0.00 | 0.00 | 0.00 | 73 | 1013.9 |
| 20260502071017 | 10 | 185 | 1.6 | 3.2 | 0.00 | 0.00 | 0.00 | 73 | 1013.9 |
| 20260502070519 | 10 | 81 | 3.2 | 6.4 | 0.00 | 0.00 | 0.00 | 72 | 1013.9 |
| 20260502070003 | 10 | 211 | 4.8 | 8.0 | 0.00 | 0.00 | 0.00 | 72 | 1013.9 |
| 20260502065454 | 10 | 70 | 4.8 | 8.0 | 0.00 | 0.00 | 0.00 | 71 | 1013.9 |
| 20260502064954 | 10 | 241 | 4.8 | 8.0 | 0.00 | 0.00 | 0.00 | 71 | 1014.0 |
| 20260502064448 | 10 | 218 | 4.8 | 9.7 | 0.00 | 0.00 | 0.00 | 71 | 1014.0 |
| 20260502064206 | 10 | 228 | 6.4 | 12.9 | 0.00 | 0.00 | 0.00 | 70 | 1014.1 |
| 20260502063449 | 10 | 240 | 6.4 | 12.9 | 0.00 | 0.00 | 0.00 | 71 | 1014.1 |
| 20260502063206 | 10 | 265 | 6.4 | 12.9 | 0.00 | 0.00 | 0.00 | 70 | 1014.1 |
| 20260502062448 | 10 | 227 | 6.4 | 12.9 | 0.00 | 0.00 | 0.00 | 70 | 1014.1 |
| 20260502061948 | 10 | 227 | 6.4 | 12.9 | 0.00 | 0.00 | 0.00 | 70 | 1014.0 |
| 20260502061449 | 10 | 258 | 8.0 | 14.5 | 0.00 | 0.00 | 0.00 | 70 | 1014.0 |
| 20260502060946 | 10 | 235 | 8.0 | 14.5 | 0.00 | 0.00 | 0.00 | 70 | 1014.1 |
| 20260502060447 | 10 | 233 | 8.0 | 14.5 | 0.00 | 0.00 | 0.00 | 71 | 1014.1 |
| 20260502055947 | 10 | 241 | 6.4 | 14.5 | 0.00 | 0.00 | 0.00 | 71 | 1014.1 |
| 20260502055446 | 10 | 241 | 6.4 | 12.9 | 0.00 | 0.00 | 0.00 | 71 | 1014.1 |
| 20260502054947 | 10 | 225 | 6.4 | 12.9 | 0.00 | 0.00 | 0.00 | 72 | 1014.1 |
| 20260502054447 | 10 | 189 | 6.4 | 11.3 | 0.00 | 0.00 | 0.00 | 72 | 1014.1 |
| 20260502053946 | 9 | 258 | 4.8 | 11.3 | 0.00 | 0.00 | 0.00 | 72 | 1014.1 |
| 20260502053447 | 9 | 241 | 4.8 | 9.7 | 0.00 | 0.00 | 0.00 | 73 | 1014.3 |
| 20260502052938 | 9 | 211 | 4.8 | 9.7 | 0.00 | 0.00 | 0.00 | 73 | 1014.3 |
| 20260502052437 | 9 | 229 | 3.2 | 8.0 | 0.00 | 0.00 | 0.00 | 73 | 1014.3 |
| 20260502051934 | 9 | 237 | 1.6 | 6.4 | 0.00 | 0.00 | 0.00 | 73 | 1014.4 |
| 20260502051658 | 9 | 117 | 1.6 | 6.4 | 0.00 | 0.00 | 0.00 | 72 | 1014.4 |
| 20260502051202 | 9 | 83 | 3.2 | 6.4 | 0.00 | 0.00 | 0.00 | 72 | 1014.3 |
| 20260502050434 | 9 | 287 | 3.2 | 6.4 | 0.00 | 0.00 | 0.00 | 71 | 1014.3 |
| 20260502045934 | 9 | 192 | 3.2 | 6.4 | 0.00 | 0.00 | 0.00 | 71 | 1014.3 |
| 20260502045420 | 10 | 224 | 3.2 | 6.4 | 0.00 | 0.00 | 0.00 | 71 | 1014.4 |
| 20260502044919 | 10 | 226 | 3.2 | 6.4 | 0.00 | 0.00 | 0.00 | 70 | 1014.3 |
| 20260502044419 | 10 | 225 | 3.2 | 6.4 | 0.00 | 0.00 | 0.00 | 70 | 1014.3 |
| 20260502043919 | 10 | 230 | 3.2 | 6.4 | 0.00 | 0.00 | 0.00 | 69 | 1014.4 |
| 20260502043420 | 10 | 237 | 3.2 | 8.0 | 0.00 | 0.00 | 0.00 | 69 | 1014.4 |
| 20260502042920 | 10 | 229 | 4.8 | 8.0 | 0.00 | 0.00 | 0.00 | 69 | 1014.3 |
| 20260502042419 | 10 | 255 | 4.8 | 8.0 | 0.00 | 0.00 | 0.00 | 68 | 1014.4 |
| 20260502041920 | 10 | 207 | 4.8 | 9.7 | 0.00 | 0.00 | 0.00 | 68 | 1014.3 |
| 20260502041637 | 10 | 256 | 4.8 | 11.3 | 0.00 | 0.00 | 0.00 | 68 | 1014.3 |
| 20260502041137 | 10 | 244 | 4.8 | 11.3 | 0.00 | 0.00 | 0.00 | 67 | 1014.3 |
| 20260502040632 | 10 | 210 | 4.8 | 11.3 | 0.00 | 0.00 | 0.00 | 66 | 1014.4 |
| 20260502035908 | 10 | 241 | 4.8 | 9.7 | 0.00 | 0.00 | 0.00 | 66 | 1014.5 |
| 20260502035406 | 10 | 243 | 4.8 | 6.4 | 0.00 | 0.00 | 0.00 | 65 | 1014.5 |
| 20260502034850 | 10 | 246 | 4.8 | 8.0 | 0.00 | 0.00 | 0.00 | 64 | 1014.4 |
| 20260502034351 | 10 | 234 | 4.8 | 8.0 | 0.00 | 0.00 | 0.00 | 63 | 1014.4 |
| 20260502033852 | 10 | 250 | 6.4 | 8.0 | 0.00 | 0.00 | 0.00 | 63 | 1014.4 |
| 20260502033350 | 10 | 246 | 4.8 | 6.4 | 0.00 | 0.00 | 0.00 | 62 | 1014.4 |
| 20260502033114 | 10 | 216 | 4.8 | 8.0 | 0.00 | 0.00 | 0.00 | 61 | 1014.5 |
| 20260502032351 | 10 | 244 | 4.8 | 9.7 | 0.00 | 0.00 | 0.00 | 61 | 1014.4 |
| 20260502032119 | 10 | 239 | 6.4 | 9.7 | 0.00 | 0.00 | 0.00 | 60 | 1014.5 |
| 20260502031351 | 10 | 262 | 4.8 | 8.0 | 0.00 | 0.00 | 0.00 | 60 | 1014.4 |
| 20260502030851 | 10 | 253 | 4.8 | 8.0 | 0.00 | 0.00 | 0.00 | 59 | 1014.4 |
| 20260502030351 | 11 | 239 | 4.8 | 8.0 | 0.00 | 0.00 | 0.00 | 58 | 1014.3 |
| 20260502025851 | 11 | 235 | 6.4 | 8.0 | 0.00 | 0.00 | 0.00 | 57 | 1014.2 |
| 20260502025351 | 11 | 253 | 4.8 | 9.7 | 0.00 | 0.00 | 0.00 | 57 | 1014.2 |
| 20260502024850 | 11 | 35 | 4.8 | 9.7 | 0.00 | 0.00 | 0.00 | 56 | 1014.1 |
| 20260502024349 | 11 | 268 | 6.4 | 9.7 | 0.00 | 0.00 | 0.00 | 56 | 1014.2 |
| 20260502023849 | 11 | 245 | 6.4 | 9.7 | 0.00 | 0.00 | 0.00 | 55 | 1014.2 |
| 20260502023349 | 11 | 264 | 4.8 | 8.0 | 0.00 | 0.00 | 0.00 | 55 | 1014.2 |
| 20260502022850 | 11 | 270 | 4.8 | 11.3 | 0.00 | 0.00 | 0.00 | 54 | 1014.2 |
| 20260502022350 | 11 | 248 | 6.4 | 11.3 | 0.00 | 0.00 | 0.00 | 53 | 1014.3 |
| 20260502021850 | 11 | 250 | 6.4 | 12.9 | 0.00 | 0.00 | 0.00 | 53 | 1014.3 |
| 20260502021350 | 11 | 247 | 6.4 | 12.9 | 0.00 | 0.00 | 0.00 | 53 | 1014.3 |
| 20260502020850 | 11 | 239 | 4.8 | 9.7 | 0.00 | 0.00 | 0.00 | 54 | 1014.3 |
| 20260502020350 | 11 | 247 | 4.8 | 8.0 | 0.00 | 0.00 | 0.00 | 54 | 1014.2 |
| 20260502015850 | 10 | 230 | 4.8 | 8.0 | 0.00 | 0.00 | 0.00 | 53 | 1014.2 |
| 20260502015340 | 10 | 242 | 4.8 | 8.0 | 0.00 | 0.00 | 0.00 | 52 | 1014.1 |
| 20260502014840 | 10 | 198 | 4.8 | 8.0 | 0.00 | 0.00 | 0.00 | 52 | 1014.1 |
| 20260502014337 | 10 | 243 | 3.2 | 6.4 | 0.00 | 0.00 | 0.00 | 51 | 1014.0 |
| 20260502014058 | 10 | 234 | 1.6 | 4.8 | 0.00 | 0.00 | 0.00 | 54 | 1013.9 |
| 20260502013323 | 10 | 213 | 1.6 | 3.2 | 0.00 | 0.00 | 0.00 | 54 | 1013.9 |
| 20260502012822 | 10 | 72 | 1.6 | 1.6 | 0.00 | 0.00 | 0.00 | 54 | 1013.9 |
| 20260502012307 | 10 | 82 | 3.2 | 4.8 | 0.00 | 0.00 | 0.00 | 52 | 1013.9 |
| 20260502011808 | 11 | 71 | 3.2 | 4.8 | 0.00 | 0.00 | 0.00 | 50 | 1013.9 |
| 20260502011307 | 11 | 72 | 3.2 | 4.8 | 0.00 | 0.00 | 0.00 | 48 | 1013.8 |
| 20260502010807 | 11 | 84 | 3.2 | 4.8 | 0.00 | 0.00 | 0.00 | 47 | 1013.8 |
| 20260502010307 | 11 | 242 | 3.2 | 4.8 | 0.00 | 0.00 | 0.00 | 48 | 1013.8 |
| 20260502005808 | 11 | 237 | 3.2 | 4.8 | 0.00 | 0.00 | 0.00 | 48 | 1013.7 |
| 20260502005308 | 11 | 234 | 1.6 | 3.2 | 0.00 | 0.00 | 0.00 | 50 | 1013.6 |
| 20260502004808 | 11 | 74 | 1.6 | 3.2 | 0.00 | 0.00 | 0.00 | 49 | 1013.5 |
| 20260502004308 | 11 | 172 | 1.6 | 3.2 | 0.00 | 0.00 | 0.00 | 47 | 1013.4 |
| 20260502003808 | 12 | 247 | 1.6 | 3.2 | 0.00 | 0.00 | 0.00 | 44 | 1013.4 |
| 20260502003253 | 12 | 224 | 1.6 | 3.2 | 0.00 | 0.00 | 0.00 | 43 | 1013.3 |
| 20260502002754 | 12 | 231 | 1.6 | 3.2 | 0.00 | 0.00 | 0.00 | 43 | 1013.3 |
| 20260502002254 | 12 | 229 | 1.6 | 3.2 | 0.00 | 0.00 | 0.00 | 43 | 1013.2 |
| 20260502001753 | 12 | 103 | 1.6 | 3.2 | 0.00 | 0.00 | 0.00 | 43 | 1013.1 |
| 20260502001730 | 13 | 182 | 1.6 | 3.2 | 0.00 | 0.00 | 0.00 | 43 | 1013.0 |